Simultaneous Nadir Overpasses (SNOs) Predictions

Prediction of SNOs between AQUA and GOES-15 Satellite Orbit:

Table of predicted SNOs for the next 14.0 days since TLE Epoch: 10/22/2022
Index Date Time (AQUA) AQUA Lat,Lon GOES-15 Lat,Lon Distance(km) Time Diff (sec)
1 10/23/2022 10:12:03 -0.01,-127.67 0.17,-128.45 90.05 80
2 10/25/2022 09:59:11 -0.64,-124.53 0.18,-128.46 446.56 80
3 10/25/2022 22:20:25 -0.44,-129.68 -0.16,-128.38 147.06 80
4 10/27/2022 22:07:33 0.22,-126.54 -0.16,-128.38 208.55 80
5 10/28/2022 10:28:39 0.81,-131.66 0.14,-128.45 364.81 80
6 10/30/2022 10:15:46 0.19,-128.52 0.15,-128.44 10.63 80
7 11/01/2022 10:02:54 -0.52,-125.39 0.14,-128.41 343.77 80
8 11/01/2022 22:24:07 -0.60,-130.53 -0.12,-128.33 251.03 80
9 11/03/2022 22:11:14 0.07,-127.40 -0.12,-128.31 103.32 80
10 11/04/2022 10:32:19 1.01,-132.51 0.10,-128.38 469.59 80
